TimeCDT,TemperatureF,Dew PointF,Humidity,Sea Level PressureIn,VisibilityMPH,Wind Direction,Wind SpeedMPH,Gust SpeedMPH,PrecipitationIn,Events,Conditions,WindDirDegrees,DateUTC
12:31 AM,37.4,35.6,93,29.97,7.0,North,15.0,-,0.02,Rain,Light Rain,350,2013-04-24 05:31:00
12:38 AM,37.4,35.6,93,29.96,8.0,NNW,11.5,-,0.02,Rain,Light Rain,340,2013-04-24 05:38:00
12:52 AM,37.9,35.1,89,29.99,8.0,North,13.8,-,0.03,Rain,Light Rain,350,2013-04-24 05:52:00
1:40 AM,37.4,33.8,87,29.96,10.0,NNW,16.1,-,0.00,Rain,Light Rain,340,2013-04-24 06:40:00
1:52 AM,37.0,34.0,89,29.99,10.0,NNW,15.0,-,0.00,Rain,Light Rain,340,2013-04-24 06:52:00
2:15 AM,37.4,33.8,87,29.97,10.0,NNW,17.3,-,0.01,Rain,Light Rain,330,2013-04-24 07:15:00
2:52 AM,36.0,34.0,93,29.97,10.0,NNW,11.5,-,0.01,Rain,Light Rain,330,2013-04-24 07:52:00
3:22 AM,35.6,33.8,93,29.96,10.0,NNW,12.7,-,0.01,Rain,Light Rain,330,2013-04-24 08:22:00
3:29 AM,35.6,33.8,93,29.96,10.0,NNW,10.4,-,0.01,Rain,Light Rain,330,2013-04-24 08:29:00
3:52 AM,35.1,34.0,96,29.99,9.0,NNW,9.2,-,0.01,Rain,Light Rain,330,2013-04-24 08:52:00
4:52 AM,36.0,34.0,93,30.00,8.0,NW,6.9,-,0.01,Rain,Light Rain,310,2013-04-24 09:52:00
5:52 AM,37.0,34.0,89,30.00,10.0,NW,6.9,-,0.00,,Overcast,310,2013-04-24 10:52:00
6:37 AM,37.4,33.8,87,29.99,10.0,NNW,9.2,-,N/A,,Overcast,330,2013-04-24 11:37:00
6:52 AM,37.0,33.1,86,30.01,10.0,NW,10.4,-,N/A,,Overcast,320,2013-04-24 11:52:00
7:52 AM,37.0,32.0,82,30.02,10.0,NNW,11.5,-,N/A,,Overcast,330,2013-04-24 12:52:00
8:00 AM,37.4,32.0,81,30.00,10.0,NNW,12.7,-,N/A,,Overcast,340,2013-04-24 13:00:00
8:52 AM,37.9,30.9,76,30.03,10.0,NNW,15.0,-,N/A,,Overcast,330,2013-04-24 13:52:00
9:52 AM,39.9,30.9,70,30.06,10.0,NW,15.0,-,N/A,,Partly Cloudy,310,2013-04-24 14:52:00
10:52 AM,41.0,28.9,62,30.07,10.0,NW,16.1,20.7,N/A,,Mostly Cloudy,320,2013-04-24 15:52:00
11:52 AM,43.0,30.0,60,30.06,10.0,NW,15.0,-,N/A,,Scattered Clouds,320,2013-04-24 16:52:00
1:52 PM,46.9,30.0,52,30.07,10.0,WNW,11.5,18.4,N/A,,Mostly Cloudy,290,2013-04-24 18:52:00
2:52 PM,48.0,30.9,52,30.08,10.0,West,10.4,19.6,N/A,,Scattered Clouds,260,2013-04-24 19:52:00
3:52 PM,48.9,30.9,50,30.08,10.0,West,15.0,23.0,N/A,,Mostly Cloudy,260,2013-04-24 20:52:00
4:52 PM,50.0,32.0,50,30.09,10.0,West,12.7,23.0,N/A,,Mostly Cloudy,260,2013-04-24 21:52:00
5:52 PM,48.9,32.0,52,30.09,10.0,West,15.0,-,N/A,,Scattered Clouds,260,2013-04-24 22:52:00
6:52 PM,48.0,30.0,50,30.09,10.0,WSW,13.8,-,N/A,,Clear,240,2013-04-24 23:52:00
7:52 PM,45.0,30.9,58,30.11,10.0,SW,9.2,-,N/A,,Clear,230,2013-04-25 00:52:00
8:52 PM,43.0,30.9,62,30.12,10.0,SW,9.2,-,N/A,,Clear,220,2013-04-25 01:52:00
9:52 PM,41.0,30.9,67,30.14,10.0,SSW,8.1,-,N/A,,Clear,200,2013-04-25 02:52:00
10:52 PM,41.0,32.0,70,30.13,10.0,South,9.2,-,N/A,,Clear,190,2013-04-25 03:52:00
11:52 PM,39.9,30.9,70,30.12,10.0,SSW,11.5,-,N/A,,Clear,200,2013-04-25 04:52:00